Regional Weather Roundup
Issued by NWS

Home | Current Version | Previous Version | Graphics & Text | Print | Product List | Glossary On
Versions: 1 2 3 4 5 6 7 8 9 10 11 12 13 14 15 16 17 18 19 20 21 22 23 24 25 26 27 28 29 30 31 32 33 34 35 36 37 38 39 40 41 42 43 44 45 46 47 48 49 50
000
ASUS43 KTOP 202308
RWRKS

WEATHER ROUNDUP FOR KANSAS
NATIONAL WEATHER SERVICE GOODLAND KS
600 PM CDT SUN AUG 20 2017

NOTE:  "FAIR" INDICATES FEW OR NO CLOUDS BELOW 12,000 FEET WITH NO
SIGNIFICANT WEATHER AND/OR OBSTRUCTIONS TO VISIBILITY.

KSZ001>006-013>018-027>032-041>047-210000-
NORTHWEST KANSAS

CITY           SKY/WX    TMP DP  RH WIND       PRES   REMARKS
GOODLAND       SUNNY     91  57  31 S10       29.94F
HAYS           PTSUNNY   95  64  35 S18       29.87S HX  97
HILL CITY      MOSUNNY   99  58  25 S7        29.87S HX  98
RUSSELL        MOSUNNY   95  63  34 S14G23    29.87R HX  96
$$

KSZ061>065-074>080-084>089-210000-
SOUTHWEST KANSAS

CITY           SKY/WX    TMP DP  RH WIND       PRES   REMARKS
DODGE CITY     SUNNY     96  59  29 S15G24    29.92F HX  95
ELKHART          N/A     88  66  48 S10         N/A
GARDEN CITY    SUNNY     92  61  35 S18G26    29.93S
GREAT BEND     PTSUNNY   94  67  41 S15G23    29.89S HX  97
LIBERAL        MOSUNNY   90  65  43 MISG        N/A
PRATT          PTSUNNY   94  63  35 S13G20    29.92S
$$

KSZ066>073-081>083-090>101-210000-
SOUTHEAST KANSAS

CITY           SKY/WX    TMP DP  RH WIND       PRES   REMARKS
CHANUTE        SUNNY     93  76  57 S10       29.96S HX 105
COFFEYVILLE    MOSUNNY   90  72  55 S12       29.95R HX  97
HUTCHINSON     MOSUNNY   95  67  39 S13G23    29.90S HX  99
MEDICINE LODGE   N/A     95  67  39 S10       29.89S HX  99
NEWTON         MOSUNNY   90  73  57 S15       29.94R HX  98
PARSONS        SUNNY     91  76  61 S7G17     29.97S HX 103
WICHITA INTL   MOSUNNY   96  69  41 S18G24    29.91S HX 102
WICHITA JABRA  MOSUNNY   92  71  50 S13       29.92S HX  98
WICHITA MCCONL SUNNY     94  67  41 S20G25    29.93S HX  98
WINFIELD       MOSUNNY   92  71  50 S12       29.94R HX  98
$$

KSZ007>012-019>026-033>040-048>060-102>105-210000-
NORTHEAST KANSAS

CITY           SKY/WX    TMP DP  RH WIND       PRES   REMARKS
CONCORDIA      MOSUNNY   93  68  43 S12       29.87F HX  97
EMPORIA        MOSUNNY   91  72  53 SE12      29.94S HX  98
LAWRENCE       CLOUDY    88  75  65 E10       29.95S HX  97
MANHATTAN      SUNNY     94  76  55 SE13      29.90R HX 106
MARYSVILLE     MOSUNNY   88  73  62 SE15G21   29.92S HX  96
OLATHE IND     MOSUNNY   85  74  69 SE9       29.98F
OLATHE EXE     MOSUNNY   84  75  74 SE10      29.98F
SALINA         CLOUDY    99  65  32 S16G29    29.88S HX 102
TOPEKA BILLARD SUNNY     88  76  67 SE18      29.94F HX  99
TOPEKA FORBES  MOSUNNY   89  76  65 E14       29.94F HX 100
$$



USA.gov is the U.S. government's official web portal to all federal, state and local government web resources and services.